Regional Weather Roundup
Issued by NWS Wakefield, VA

Home | Current Version | Previous Version | Graphics & Text | Print | Product List | Glossary On
Versions: 1 2 3 4 5 6 7 8 9 10 11 12 13 14 15 16 17 18 19 20 21 22 23 24 25 26 27
000
ASUS41 KAKQ 190610
RWRAKQ

REGIONAL WEATHER ROUNDUP
NATIONAL WEATHER SERVICE WAKEFIELD VA
200 AM EDT SAT APR 19 2014

Note: "fair" indicates few or no clouds below 12,000 feet with no
significant weather and/or obstructions to visibility. * = Denotes
station may not report precipitation (e.g., rain,snow,etc.),
thunder or fog.

VAZ042-051-052>054-056-190700-
NORTHERN VIRGINIA

CITY           SKY/WX    TMP DP  RH WIND       PRES   REMARKS
WASH NATIONAL  CLOUDY    49  37  63 S6        30.28F
DULLES         CLOUDY    43  36  76 CALM      30.26F
FORT BELVOIR   FAIR      42  38  86 CALM      30.27F
QUANTICO       FAIR      47  40  76 NW6       30.28F
FREDERICKSBRG* FAIR      46  41  81 CALM      30.26F
STAFFORD*      FAIR      42  42 100 CALM      30.31F
WARRENTON      FAIR      42  41  97 CALM      30.26F
CULPEPER*      FAIR      45  39  81 CALM      30.27F
MANASSAS*      FAIR      43  43 100 CALM      30.27F
LEESBURG*      FAIR      46  37  71 S3        30.27F
WINCHESTER     FAIR      41  37  87 CALM      30.23F
$$

VAZ048-049-060>072-079>083-190700-
CENTRAL AND SOUTH CENTRAL VIRGINIA...AND NORTH CENTRAL NORTH CAROLINA

CITY           SKY/WX    TMP DP  RH WIND       PRES   REMARKS
RICHMOND       CLOUDY    47  41  80 SE5       30.25F
CHESTERFIELD*  NOT AVBL
HANOVER        FAIR      46  40  79 CALM      30.27F
TAPPAHANNOCK*  FAIR      45  40  82 CALM      30.26F
CHARLOTTSVILLE FAIR      47  37  68 CALM      30.25S
ORANGE*        FAIR      43  37  81 CALM      30.27F
LOUISA*        FAIR      45  37  76 CALM      30.24F
FARMVILLE*     FAIR      46  39  76 CALM      30.22F
SOUTH HILL*    RAIN      46  46 100 CALM      30.28F
ROANOKE RAPIDS LGT RAIN  46  45  93 CALM      30.23F
RALEIGH        LGT RAIN  48  45  87 NE9       30.19F
$$

VAZ088>098-190700-
SOUTHEAST VIRGINIA

CITY           SKY/WX    TMP DP  RH WIND       PRES   REMARKS
NORFOLK        CLOUDY    46  42  86 NE8       30.25F
VIRGINIA BEACH CLOUDY    46  41  82 NE7       30.23F
NORFOLK NAVAL  LGT RAIN  47  42  83 NE6       30.26F
WEST POINT*    MOCLDY    47  42  81 CALM      30.28F
NEWPORT NEWS   LGT RAIN  49  42  77 E3        30.26F
LANGLEY AFB    DRIZZLE   46  45  93 E5        30.27F
FORT EUSTIS    FAIR      47  43  88 E3        30.24F
WILLIAMSBURG*  MOCLDY    48  45  87 CALM      30.27F
FRANKLIN*      CLOUDY    46 N/A N/A NE3       30.25F
WAKEFIELD      LGT RAIN  47  43  86 CALM      30.26F
$$

VAZ020-022-025-037-045-190700-
WESTERN AND SOUTHWEST VIRGINIA

CITY           SKY/WX    TMP DP  RH WIND       PRES   REMARKS
STAUNTON*      FAIR      44  38  79 CALM      30.25S
HOT SPRINGS VA FAIR      46  27  46 W7        30.28S
LYNCHBURG      CLOUDY    49  42  77 CALM      30.24F
DANVILLE       LGT RAIN  49  43  80 NE7       30.23F
MARTINSVILLE   LGT RAIN  48  44  83 N3        30.25S
ROANOKE        CLOUDY    46  39  76 CALM      30.24F
BLACKSBURG     FAIR      45  43  93 CALM      30.23F
DUBLIN*        FAIR      44  40  84 CALM      30.23F
MARION*        FAIR      46  37  71 CALM      30.23S
HILLSVILLE*    FAIR      46  37  71 E3        30.23F
RICHLANDS*     FAIR      54  33  45 E6        30.20S
WISE*          FAIR      52  32  46 N3        30.21F
ABINGDON*      FAIR      53  34  49 E6        30.19S
$$

MDZ021>025-VAZ099-100-190700-
SOUTHERN MARYLAND AND THE DELMARVA PENINSULA

CITY           SKY/WX    TMP DP  RH WIND       PRES   REMARKS
PATUXENT RIVER FAIR      45  41  86 CALM      30.27F
BAY BRIDGE APT FAIR      46  41  81 CALM      30.28F
LEONARDTOWN    FAIR      45  37  76 CALM      30.27F
DOVER          FAIR      41  41 100 S6        30.24F
GEORGETOWN     FAIR      43  39  86 S3        30.28F
EASTON         FAIR      46  43  87 CALM      30.31F
CAMBRIDGE      MOCLDY    45  39  81 CALM      30.27F
SALISBURY      FAIR      45  40  82 CALM      30.27F
OCEAN CITY     FAIR      43  39  86 CALM      30.28F
WALLOPS ISLAND FAIR      45  42  89 CALM      30.27F
ACCOMACK*      FAIR      43  39  87 N5        30.26F
$$

NCZ012>017-030>032-190700-
EASTERN NORTH CAROLINA

CITY           SKY/WX    TMP DP  RH WIND       PRES   REMARKS
ELIZABETH CITY MOCLDY    47  43  86 N9        30.23F
AHOSKIE*       FAIR      46  41  80 NE3       30.24F
EDENTON*       CLOUDY    47  44  89 N7        30.24F
CURRITUCK*     MOCLDY    47  44  89 N7        30.23F
KILL DEVIL HLS LGT RAIN  47  46  94 N8        30.21F
MANTEO         CLOUDY    47  46  96 NE10      30.22F
CAPE HATTERAS  CLOUDY    51  51 100 NE12G18   30.17F
GOLDSBORO      LGT RAIN  49  48  98 VRB7G18   30.15F
WASHINGTON     CLOUDY    48  43  85 NE9       30.21F
GREENVILLE     DRIZZLE   46  45  93 N7        30.21F
NEW BERN       LGT RAIN  51  48  89 NE10      30.17F
WILMINGTON     RAIN      52  49  89 N14       30.09F FOG
$$

VAZ048-190700-
ELSEWHERE

CITY           SKY/WX    TMP DP  RH WIND       PRES   REMARKS
HARRISBURG PA  CLOUDY    48  34  58 S3        30.26R
BALTIMORE      CLOUDY    42  35  76 CALM      30.26F
ANNAPOLIS      FAIR      46  40  79 CALM      30.27F
ANDREWS AFB    FAIR      44  37  75 S3        30.26F
WILMINGTON DE  FAIR      43  38  82 S6        30.27F
PHILADELPHIA   CLOUDY    44  37  76 S8        30.28S
WILDWOOD NJ*   FAIR      41  36  81 CALM      30.30R
ATLANTIC CITY  FAIR      39  35  86 CALM      30.27S
HENDERSON NC   RAIN      46  45  95 NE5       30.22F
GREENSBORO     LGT RAIN  47  43  86 NE10      30.18F
ROCKY MOUNT    CLOUDY    49  44  83 NE8       30.21F
FAYETTEVILLE   RAIN      52  50  93 NE10      30.14F FOG
CHARLOTTE      LGT RAIN  48  47  96 N12       30.15F
$$

VAZ100-190700-
MARINE

STATION/POSITION TIME  TEMP    WIND        PRES    WAVE   SWELL
                       AIR SEA DIR/SP/G            HT/PER HT/PER
                 (UTC) (F)     (DEG/KT/KT) (MB)    (FT/S) (FT/S)
44066 TX TWR #4  0600   41 44  280/  2/  4 1025.1F   7/10   7/10
CAPE MAY NJ      0600   42 53  210/  3/  4 1025.5S
LEWES DE         0600   43 49  230/  3/  4 1025.0F
15NM E FENWICK I 0600   44 45              1025.1F   6/10
OCEAN-CITY-INLET 0600   44 47  350/  1/  1 1025.0F
WACHAPREAGUE VA  0600   45 52   40/  7/  9 1024.2F
THOMAS POINT MD  0600   49 52  210/  5/  6 1025.5F
GOOSES REEF MD   0600   48     230/  6/  6 1026.4F
COVE POINT MD    0600   47     200/  5/  5 1025.1F
SOLOMONS ISLAND  0600      51                N/A
BISHOPS HEAD MD  0600   47 54  190/  5/  6 1024.7F
PINEY POINT MD   0600          200/  4/  5   N/A
POTOMAC MD       0600   47     190/  4/  6 1024.4F
CAMBRIDGE MD     0600   45 55  170/  4/  6 1024.8F
LEWISETTA VA     0600   46 53  160/  3/  4 1024.6F
RAPPAHANNOCK LGT 0600           90/  3/  4 1025.2F
STINGRAY PT      0600   46      CALM  /  2 1024.9F
YORK RVR RNG VA  0600   46      80/  4/  5 1023.9F
YORKTOWN VA      0600   47 54   90/  4/  5 1024.5F
JAMESTOWN VA     0600   47      60/  4/  6   N/A
DOMINION TERM VA 0600   47      20/  1/  3 1024.8F
KIPTOPEKE VA     0600      52   60/  4/  6   N/A
CHES BAY BRIDGE  0600   46 51   20/  7/  9 1024.2F
CAPE HENRY VA    0600   45      40/  7/  8   N/A
CHESAPEAKE LGHT  0500   45      20/  9/ 10 1025.7F
WILLOUBY STN VA  0600   46      50/  5/  5 1023.7F
S CRANEY ISL VA  0600          360/  6/  7 1024.5F
CAPE HENRY BUOY  0600      47                N/A     4/11   2/11
1ST LANDING BUOY 0600      45                N/A     4/11   3/11
64NM E OF VA BCH 0600   49 49  360/ 14/ 16 1022.8F   6/12   5/12
DUCK PIER NC     0600   47 49   20/ 11/ 12 1022.7R
44100 DUCK FRF   0600      48                N/A     6/ 9   3/13
44056 DUCK FRF   0600      48                N/A     5/11   2/11
OREGON INLET NC  0600   48 53  360/ 10/ 14 1023.0F
HATTERAS NC      0600   53 57   30/ 11/ 15 1021.9F
CAPE LOOKOUT NC  0500   55      30/ 20/ 26 1020.9F
FRYING PAN SHLS  0600   64 65   60/ 19/ 33 1015.1F   9/ 7   2/11
$$



USA.gov is the U.S. government's official web portal to all federal, state and local government web resources and services.